Location: ???? ???????????
(44.0892°N, 135.3066°E)
Time: 09:38:27
(UTC+00:00)

Daily predictions for brighter satellites

Satellite Brightness Start Highest point End
(mag) Time Altitude Azimuth Time Altitude Azimuth Time Altitude Azimuth
Meteor 2-20 Rocket 4.4 12:00:16 10° S 12:06:02 86° W 12:12:02 10° N
Terra 3.6 12:07:54 10° SSW 12:11:51 27° W 12:15:50 10° NW
Cosmos 2208 Rocket 4.1 12:07:06 10° SSW 12:12:19 81° WNW 12:17:31 10° NNE
Cosmos 2227 4.3 12:08:58 10° SSW 12:14:42 83° WNW 12:20:30 10° NNE
SPOT 3 Rocket 3.5 12:11:14 17° SSE 12:15:14 76° ENE 12:20:23 10° N
BlueWalker 3 3.6 12:13:08 10° W 12:15:46 20° SW 12:17:35 14° S
Sich 1 3.0 12:11:55 10° N 12:16:11 67° E 12:18:59 21° SSE
GP-B 4.2 12:12:43 10° NNE 12:16:30 28° E 12:18:26 20° SE
CZ-2C R/B 3.7 12:15:49 17° E 12:16:31 18° ENE 12:18:32 10° NNE
CZ-4B R/B 2.9 12:14:32 22° SSE 12:16:54 62° ENE 12:20:48 10° N
Cosmos 44 Rocket 3.8 12:12:28 10° NW 12:17:32 58° WSW 12:21:07 18° SSE
Milstar 3 Cent rocket 3.7 12:16:03 10° SSW 12:18:24 14° S 12:18:24 14° S
Cosmos 1461 3.1 12:18:26 10° NNW 12:21:49 44° NE 12:23:32 23° ESE
IRS-1C Rocket 4.2 12:19:41 20° SSE 12:23:22 68° ENE 12:28:36 10° N
Ariane Rocket 3.0 12:23:47 21° SSE 12:27:15 74° ENE 12:32:20 10° N
Cosmos 1553 Rocket 4.2 12:24:20 17° SSE 12:29:08 57° E 12:35:19 10° NNE
Cosmos 1603 3.7 12:24:55 10° NNW 12:30:41 87° ENE 12:34:24 23° SSE
CZ-4C R/B 3.4 12:24:21 10° NW 12:31:30 60° WSW 12:38:08 18° SSE
Cosmos 1844 Rocket 3.4 12:33:13 10° SW 12:38:38 54° WNW 12:44:07 10° NNE
NOSS 3-2 (C) 3.2 12:35:17 16° S 12:38:56 47° ESE 12:44:23 10° NE
Cosmos 1758 3.2 12:37:19 10° NNW 12:41:00 72° W 12:42:49 28° S
USA 186 3.6 12:40:59 12° SW 12:42:05 16° W 12:43:38 10° NW
Okean-O 4.3 12:38:23 10° SSW 12:42:09 28° W 12:45:55 10° NW
Okean 3 Rocket 3.7 12:37:46 10° NNW 12:42:13 72° W 12:44:50 24° S
NOSS 2-3 (C) 4.4 12:47:59 22° E 12:47:59 22° E 12:49:57 10° ENE
Cosmos 1805 Rocket 3.4 12:45:32 10° N 12:49:52 84° E 12:51:51 32° SSE
Cosmos 1833 Rocket 3.8 12:46:09 10° N 12:51:17 35° NE 12:54:40 19° ESE
ATLAS 2AS CENTAUR R/B 4.3 12:48:11 10° WNW 12:53:15 23° WSW 12:58:22 10° SSW
Cosmos 1408 Rocket 3.5 12:49:52 10° N 12:54:17 86° W 12:56:20 32° S
Cosmos 2278 Rocket 4.1 12:59:11 13° E 12:59:26 13° E 13:01:48 10° ENE
OAO 3 Rocket 4.4 12:56:05 10° WSW 12:59:08 22° SSW 12:59:08 22° SSW
Cosmos 1743 Rocket 3.6 12:57:02 10° N 13:01:20 65° E 13:02:50 38° SSE
Cosmos 1745 Rocket 4.3 12:58:34 10° N 13:04:44 56° ENE 13:07:51 29° SE
Cosmos 1340 Rocket 3.7 13:01:27 10° NNW 13:04:58 38° W 13:06:34 25° SW
CZ-4B R/B 4.1 13:05:32 23° SSW 13:08:25 50° W 13:13:27 10° NNW
Lacrosse 5 rocket 3.1 13:12:23 15° ENE 13:12:23 15° ENE 13:13:10 10° ENE
Cosmos 1151 Rocket 3.8 13:11:23 19° SW 13:14:14 47° WNW 13:18:26 10° N
Cosmos 2344 3.7 13:09:22 21° S 13:14:36 49° ESE 13:21:27 10° NE
NOSS 2-3 (D) 3.0 13:14:39 31° SW 13:16:18 90° SSE 13:20:03 10° NE
Cosmos 1703 3.1 13:21:17 48° WSW 13:21:46 56° W 13:24:54 10° N
Cosmos 1607 4.0 13:15:36 10° NW 13:22:01 77° WSW 13:25:02 34° SSE
Okean O Rocket 4.3 13:21:20 10° WSW 13:22:22 11° W 13:23:24 10° WNW
OAO 2 Rocket 4.4 13:17:52 10° WSW 13:21:17 27° SSW 13:21:17 27° SSW
Cosmos 1241 Rocket 4.3 13:20:18 22° SSW 13:24:26 73° ESE 13:30:39 10° NE
BREEZE-M R/B 3.9 13:22:21 29° SSW 13:24:40 53° SE 13:33:11 10° ENE
Cosmos 2285 Rocket 4.3 13:19:25 10° NNW 13:25:41 62° WSW 13:28:51 30° S
Cosmos 1417 Rocket 4.4 13:23:16 30° S 13:26:31 83° E 13:32:51 10° N
IKONOS-2 4.3 13:27:13 10° NNE 13:31:21 81° ESE 13:32:14 54° S
Cosmos 2315 Rocket 4.1 13:29:36 35° SSE 13:32:13 62° E 13:38:21 10° NNE
Cosmos 1633 Rocket 3.3 13:28:20 10° N 13:32:39 54° E 13:33:33 45° ESE
Cosmos 1953 1.9 13:34:47 10° NNW 13:38:22 76° W 13:38:36 71° SW
Iridium 4 Rocket 4.1 13:37:33 26° SSW 13:40:28 53° W 13:45:31 10° N
NOSS 2-3 (E) 4.1 13:41:03 17° WSW 13:43:38 45° NW 13:47:16 10° NNE
USA 215 3.2 13:40:52 32° SE 13:44:11 80° SW 13:50:45 10° NW
CZ-2C R/B 4.4 13:47:09 15° W 13:47:09 15° W 13:48:38 10° NW
Meteor 1-21 4.2 13:46:48 42° SSE 13:48:41 72° E 13:54:18 10° NNE
Cosmos 1943 Rocket 2.6 13:49:17 40° SE 13:50:23 45° ESE 13:55:45 10° NE
Cosmos 1420 Rocket 4.1 13:45:41 10° NNW 13:50:53 67° ENE 13:52:27 44° SE
ARIANE 5 R/B 3.2 13:52:24 40° ESE 13:53:21 47° ENE 13:57:38 10° N
Cosmos 1538 Rocket 4.5 13:50:36 23° SW 13:53:39 56° WNW 13:58:48 10° NNE
Helios 1A 3.3 13:54:13 10° N 13:58:06 56° WNW 13:58:59 44° WSW
Cosmos 1400 Rocket 4.1 13:55:34 10° NNE 13:58:43 26° ENE 13:58:51 26° ENE
Cosmos 923 Rocket 3.9 14:00:14 49° S 14:01:40 77° ESE 14:06:54 10° NNE
Cosmos 1470 Rocket 3.5 13:59:38 10° N 14:04:07 79° E 14:04:45 64° SSE
ALOS 2 3.0 14:04:58 46° ESE 14:05:43 53° ENE 14:10:01 10° N
CZ-2C R/B 4.1 14:04:30 19° E 14:06:48 26° ENE 14:11:01 10° N
BREEZE-M DEB (TANK) 3.3 14:01:47 10° WNW 14:07:10 68° SSW 14:09:21 36° SE
Helios 1B rocket 2.1 14:08:15 73° NW 14:08:15 73° NW 14:11:29 10° NNW
Cosmos 2112 Rocket 4.2 14:07:47 48° SE 14:08:32 52° ESE 14:13:33 10° NNE
S3M 4.4 14:05:27 28° SW 14:08:36 56° WNW 14:14:37 10° N
Cosmos 1933 Rocket 4.3 14:07:22 10° N 14:11:26 40° ENE 14:11:58 38° E
Okean 2 3.0 14:11:59 89° E 14:11:59 89° E 14:15:51 10° N
USA 59 Rocket 1.1 14:14:24 24° ENE 14:14:24 24° ENE 14:15:52 10° NE
USA 81 4.2 14:11:25 10° N 14:16:39 62° E 14:17:54 48° SE
Timation 1 Rocket 4.2 14:11:37 10° NNW 14:17:38 82° WSW 14:19:27 47° SSE
CZ-2C R/B 3.8 14:14:02 10° N 14:18:44 78° WNW 14:19:48 53° SSW
Cosmos 1371 Rocket 4.2 14:15:50 10° NNW 14:21:03 62° ENE 14:22:31 44° SE
GEOS 3 Rocket 3.6 14:20:11 49° SSE 14:21:43 83° SW 14:27:08 10° NW
Cosmos 1833 Rocket 3.4 14:30:01 10° NW 14:35:13 38° WSW 14:36:19 35° SW
Cosmos 1441 Rocket 4.0 14:36:12 38° NE 14:36:12 38° NE 14:38:27 10° NNE
PSLV R/B 3.6 14:32:18 10° NNE 14:36:57 85° WNW 14:37:41 64° SSW
Cosmos 2082 Rocket 2.8 14:34:58 10° NNW 14:40:27 49° ENE 14:42:55 30° ESE
USA 238 DEB 3.4 14:39:27 37° SW 14:42:04 88° NW 14:48:46 10° NE
USA 238 3.4 14:39:42 38° SW 14:42:17 89° NW 14:48:59 10° NE
Cosmos 2278 Rocket 2.1 14:40:58 49° SSW 14:42:36 89° ESE 14:48:19 10° NNE
Cosmos 1869 Rocket 3.6 14:39:13 10° N 14:43:30 64° E 14:43:48 61° ESE
Helios 1B 4.3 14:39:39 10° NNE 14:43:55 84° WNW 14:44:14 75° SW
Spot 4 4.2 14:44:44 48° SW 14:45:25 52° W 14:50:09 10° NNW
MetOp-A 3.6 14:45:29 56° E 14:45:42 57° ENE 14:49:30 10° N
Lacrosse 5 rocket 2.3 14:45:26 29° WNW 14:46:32 37° NW 14:49:50 10° NE
Cosmos 1515 Rocket 4.3 14:50:49 39° WSW 14:51:32 42° WNW 14:55:40 10° N
Cosmos 1331 Rocket 4.3 14:56:40 10° NNW 15:01:46 58° ENE 15:03:22 40° ESE
CZ-2C R/B 3.1 14:57:52 10° NNE 15:03:26 82° WNW 15:04:48 52° SSW
Cosmos 1680 Rocket 4.3 15:01:49 30° WSW 15:03:50 43° WNW 15:08:48 10° N
Cosmos 1733 Rocket 3.8 14:59:51 10° N 15:03:56 41° ENE 15:04:34 38° E
ACS3 Solar Sail 2.1 14:59:17 10° NNE 15:04:50 49° E 15:06:22 39° SE
Cosmos 1624 Rocket 4.2 15:00:19 10° NNW 15:05:29 54° WSW 15:06:16 49° SW
Cosmos 1862 Rocket 4.1 15:08:27 42° ESE 15:08:42 43° E 15:12:46 10° NNE
Okean 3 4.2 15:10:42 37° W 15:10:57 37° WNW 15:14:41 10° N
Cosmos 1048 Rocket 3.9 15:10:43 58° SSW 15:11:47 90° E 15:17:04 10° NNE
Cosmos 2056 Rocket 3.9 15:07:14 10° NNW 15:12:04 44° WSW 15:12:34 43° WSW
Cosmos 1315 Rocket 4.5 15:13:28 10° NNE 15:16:34 23° ENE 15:17:22 22° E
Okean 1-7 3.1 15:18:47 56° ESE 15:18:58 56° E 15:23:06 10° NNE
NOSS 2-1 (E) 3.5 15:21:15 56° NW 15:21:15 56° NW 15:24:28 10° NNE
Cosmos 2074 Rocket 4.4 15:18:58 10° NNW 15:24:57 51° W 15:26:48 39° SW
Cosmos 2369 Rocket 3.3 15:26:51 27° SE 15:28:05 29° ESE 15:32:49 10° NE
Geosat 3.9 15:23:18 10° NNE 15:28:20 88° WNW 15:29:30 54° SSW
Meteor 1-24 Rocket 4.1 15:30:56 40° SSE 15:32:51 59° E 15:38:46 10° NNE
SL-12 R/B(2) 4.3 15:30:53 37° S 15:34:10 62° ESE 15:43:21 10° NE
Cosmos 1943 Rocket 3.6 15:30:45 17° WSW 15:34:15 31° NW 15:39:14 10° N
Cosmos 2366 rocket 4.5 15:28:31 10° N 15:34:46 56° ENE 15:37:51 30° SE
Cosmos 614 Rocket 3.8 15:34:08 57° S 15:35:10 82° ESE 15:40:16 10° NNE
Cosmos 2327 Rocket 4.4 15:31:39 10° N 15:37:49 82° E 15:40:04 42° SSE
IDEFIX/ARIANE 42P 4.3 15:37:42 10° NE 15:41:41 21° E 15:43:48 17° SE
ARIANE 6 FM1 Upper Stage 4.1 15:43:22 25° ESE 15:43:22 25° ESE 15:46:23 10° ENE
Cosmos 2218 Rocket 4.4 15:36:53 10° N 15:43:10 59° ENE 15:46:20 29° SE
CZ-2C R/B 3.0 15:45:57 40° WSW 15:46:46 43° W 15:51:43 10° NNW
Lacrosse 4 Rocket 4.4 15:45:32 10° NNE 15:47:36 13° NE 15:49:39 10° ENE
Cosmos 1174 3.8 15:50:20 63° W 15:50:40 67° WNW 15:54:14 10° NNE
Cosmos 2228 Rocket 2.9 15:51:47 64° SSE 15:52:24 81° E 15:56:48 10° N
NOSS 3-1 (C) 3.1 15:55:08 45° SSE 15:55:48 49° ESE 16:00:53 10° NE
Cosmos 962 Rocket 4.5 15:50:45 10° N 15:57:06 75° W 15:59:34 40° S
Landsat 5 3.7 15:56:24 10° N 15:59:58 45° WNW 16:00:10 44° W
Meteor 2-15 4.3 15:54:19 10° N 16:00:27 87° W 16:02:53 39° S
USA 59 Rocket 2.0 15:59:49 11° WNW 16:01:23 14° NW 16:03:10 10° N
Meteor 2-13 Rocket 4.4 16:02:39 41° SSW 16:05:01 86° W 16:11:11 10° N
Cosmos 1452 Rocket 3.7 16:05:01 10° NNW 16:10:08 53° WSW 16:11:16 44° SW
Cosmos 2341 Rocket 3.9 16:06:08 10° N 16:12:22 75° W 16:14:59 37° S
BREEZE-M DEB (TANK) 2.9 16:09:14 10° WNW 16:17:07 65° NNE 16:20:08 10° E
Cosmos 1992 Rocket 4.2 16:14:24 10° NNW 16:19:35 67° ENE 16:22:48 23° SE
MSX 4.4 16:15:35 10° NNE 16:21:12 50° E 16:24:02 28° SSE
Lacrosse 5 rocket 4.0 16:22:21 10° NW 16:23:53 12° NNW 16:25:24 10° NNE
Cosmos 2082 Rocket 3.3 16:19:37 10° NW 16:24:10 26° WSW 16:24:42 25° WSW
Cosmos 2278 Rocket 4.4 16:23:43 10° W 16:27:28 18° NW 16:31:15 10° N
SL-8 Rocket 4.2 16:22:29 10° NNW 16:28:28 54° W 16:30:53 34° SSW
SL-8 R/B 3.6 16:29:25 35° WSW 16:31:25 89° N 16:36:12 10° ENE
Cosmos 1869 2.9 16:30:09 10° NNW 16:33:33 62° W 16:33:37 62° WSW
Cosmos 1300 Rocket 3.7 16:29:23 10° N 16:33:43 70° E 16:35:31 34° SSE
Cosmos 1703 Rocket 3.5 16:35:48 46° SW 16:36:57 68° W 16:41:18 10° N
Meteor 2-15 Rocket 4.5 16:31:18 10° NNW 16:37:20 64° W 16:40:10 32° SSW
Cosmos 1140 Rocket 4.5 16:36:40 23° SSE 16:39:11 37° ESE 16:43:52 10° NE
ATLAS 5 CENTAUR R/B 1.0 16:40:49 47° WNW 16:40:57 47° NW 16:43:54 10° NNE
COSMOS 2406 3.7 16:36:37 10° NW 16:41:53 40° WSW 16:43:31 33° SW
PSLV R/B 4.2 16:39:10 10° N 16:42:56 50° WNW 16:43:47 41° WSW
Cosmos 1818 3.9 16:41:08 32° S 16:43:24 56° ESE 16:48:44 10° NE
ACS3 Solar Sail 3.0 16:42:06 10° N 16:46:46 27° WNW 16:49:44 18° WSW
Cosmos 1356 Rocket 3.7 16:44:54 10° NNW 16:48:42 43° W 16:49:19 40° WSW
ADEOS Rocket 3.0 16:44:32 10° NNE 16:51:04 80° ESE 16:54:32 27° S
Cosmos 1315 Rocket 4.1 16:48:56 10° NW 16:52:00 24° W 16:52:01 24° W
USA 290 2.0 16:50:01 10° NNW 16:53:08 78° WSW 16:53:30 65° S
BREEZE-M DEB (TANK) 4.4 16:37:20 10° WSW 16:59:21 77° NNW 17:04:07 10° ENE
Cosmos 2297 3.9 16:56:41 28° SW 16:59:42 62° WNW 17:05:24 10° NNE
COSMOS 2455 2.8 17:01:40 27° SSW 17:05:04 80° ESE 17:11:06 10° NNE
Cosmos 2239 Rocket 4.4 17:01:28 10° NNW 17:07:38 73° W 17:11:57 21° S
USA 276 3.0 17:06:44 25° WNW 17:08:01 41° NNW 17:10:56 10° NE
Cosmos 2369 Rocket 2.9 17:08:36 22° WSW 17:11:51 43° WNW 17:17:11 10° NNE
ALOS 3.8 17:10:13 10° NE 17:14:11 29° E 17:18:06 10° SSE
Iridium 82 3.7 17:14:09 56° SSW 17:14:38 79° W 17:17:25 10° N
Cosmos 921 Rocket 3.5 17:12:28 23° S 17:14:55 53° ESE 17:19:03 10° NNE
Cosmos 1023 Rocket 4.4 17:13:25 26° SSW 17:16:19 88° ESE 17:21:24 10° NNE
Nadezhda 3 Rocket 4.1 17:13:58 24° SSW 17:17:48 64° W 17:24:00 10° N
SJ 16-02 2.9 17:15:31 11° SSE 17:18:48 27° E 17:22:24 10° NE
IDEFIX/ARIANE 42P 3.0 17:16:19 10° N 17:21:24 51° WNW 17:24:29 23° SW
ARIANE 6 FM1 Upper Stage 3.6 17:19:19 20° WSW 17:21:46 40° NW 17:25:40 10° NNE
SL-4 R/B 1.3 17:20:42 33° WSW 17:21:56 74° NNW 17:25:03 10° NE
Resurs 1-4 Rocket 3.1 17:17:41 10° NNE 17:22:39 42° E 17:27:33 10° S
ADEOS II 3.7 17:18:51 10° NE 17:23:20 28° E 17:27:48 10° SSE
Cosmos 1339 Rocket 4.4 17:19:33 21° SSW 17:23:41 73° W 17:29:46 10° N
Meteor 1-21 Rocket 4.3 17:19:42 21° SSW 17:23:43 82° W 17:29:40 10° N
COSMOS 2441 4.4 17:19:10 10° NNE 17:24:03 81° ESE 17:27:28 20° S
Lacrosse 4 Rocket 1.3 17:21:46 10° NNW 17:25:59 90° W 17:30:09 10° SSE
Cosmos 1934 Rocket 4.0 17:20:29 10° N 17:26:48 87° W 17:33:08 10° S
Envisat 3.4 17:23:03 10° NNE 17:28:05 60° E 17:32:20 14° S
Cosmos 1782 Rocket 4.3 17:26:46 10° NNW 17:30:47 35° W 17:32:46 23° SW
FENGYUN 3A 3.9 17:25:58 10° N 17:31:14 57° WNW 17:34:47 20° SW
NOSS 3-1 (A) 2.9 17:31:27 22° SW 17:34:26 73° NW 17:39:58 10° NE
SL-24 DEB 4.5 17:31:03 10° SSE 17:35:25 64° E 17:39:48 10° N
Cosmos 407 Rocket 3.9 17:33:03 15° S 17:37:10 57° ESE 17:42:10 10° NNE
H-2A R/B 4.2 17:35:13 10° SE 17:38:34 30° ENE 17:42:01 10° N
USA 308 2.6 17:36:53 24° SW 17:39:08 85° SE 17:43:22 10° NE
USA 234 3.9 17:34:21 10° ENE 17:40:36 46° SE 17:45:53 14° SSW
CZ-2D R/B 2.6 17:39:47 10° NNE 17:45:13 61° ESE 17:50:33 10° S
NPP 4.3 17:41:47 10° N 17:46:52 42° WNW 17:50:45 16° SW
NOAA 11 4.4 17:45:17 10° N 17:50:40 58° WNW 17:55:05 15° SW
Cosmos 2242 Rocket 3.7 17:49:38 17° SSW 17:52:52 59° WNW 17:57:12 10° N
H-2A R/B 2.4 17:48:50 10° NNE 17:54:08 67° ESE 17:59:15 10° S
SeaSat 1 2.4 17:50:21 10° SSE 17:55:15 86° WSW 18:00:10 10° NNW
Meteor 1-11 4.3 17:54:18 14° SSW 17:59:04 66° WNW 18:04:42 10° N
Cosmos 405 Rocket 1.9 17:59:22 15° S 18:01:41 89° ESE 18:04:40 10° N
Lacrosse 5 rocket 4.3 18:01:02 10° N 18:01:44 10° N 18:02:25 10° NNE
Cosmos 1025 Rocket 3.1 17:58:40 10° S 18:02:59 85° E 18:07:21 10° N
Cosmos 371 Rocket 3.3 17:59:04 14° SSW 18:03:10 76° WNW 18:08:02 10° NNE
Cosmos 1605 Rocket 4.0 18:01:35 10° NNW 18:07:54 74° W 18:14:04 10° S
USA 281 4.3 18:04:55 10° SE 18:11:09 48° ENE 18:17:25 10° NNW
Cosmos 540 Rocket 3.4 18:06:33 10° NNW 18:11:39 77° WSW 18:16:42 10° SSE
Cosmos 1346 Rocket 3.9 18:09:29 14° WSW 18:11:51 25° WNW 18:14:54 10° NNW
Okean 2 Rocket 3.2 18:07:47 10° N 18:12:11 79° E 18:16:32 10° SSE
DMSP B5D2-2 4.5 18:09:16 10° S 18:14:14 44° W 18:19:17 10° NNW
Cosmos 304 Rocket 4.1 18:11:03 13° SW 18:15:11 51° WNW 18:19:51 10° NNE
Cosmos 1455 Rocket 4.4 18:14:03 10° N 18:18:08 41° ENE 18:22:13 10° SSE
Cosmos 2151 Rocket 3.7 18:15:23 10° NNW 18:19:51 63° W 18:24:15 10° S
Cosmos 1378 Rocket 4.4 18:20:37 11° SW 18:24:20 33° WNW 18:28:13 10° N
Cosmos 2221 Rocket 3.6 18:20:56 10° S 18:25:26 89° W 18:29:59 10° N
Cosmos 1697 Rocket 4.1 18:20:49 10° S 18:25:51 35° ESE 18:30:53 10° NE
ATLAS 3B R/B 4.4 18:22:36 10° S 18:29:06 32° ESE 18:35:50 10° NE
Cosmos 1763 Rocket 3.8 18:28:25 10° NNW 18:33:11 43° WSW 18:37:55 10° S
Cosmos 1782 3.4 18:29:55 10° N 18:33:23 53° E 18:36:49 10° SSE
Cosmos 2292 Rocket 2.5 18:30:33 10° S 18:33:24 87° W 18:36:29 10° N
METEOR-M 4.2 18:29:36 10° NNE 18:34:59 88° WNW 18:40:19 10° SSW
Sich 1 Rocket 3.7 18:36:17 10° NNW 18:40:49 67° W 18:45:18 10° S
